Wind_Gust
17 18 18 18 18 19 19 18 18 19 18 18 18 19 19 19 20 20 20 20 19 21 20 22 22 23 23 21 20 22 22 21 19 18 18 20 21 20 24 24 23 21 19 22 19 20 20 22 25 24 26 27 20 19 20 24 26 25 22 22 23 22 23 24 26 25 22 21 25 25 25 22 28 29 30 30 25 27 27 33 26 23 24 26 24
19 18 17 18 18 18 19 19 19 19 19 17 17 19 18 19 18 19 20 18 17 19 21 21 22 22 23 23 20 22 23 21 19 18 20 20 20 21 21 19 19 20 18 19 17 15 14 18 20 21 21 24 21 20 25 25 25 25 23 24 29 25 23 26 25 26 25 22 23 23 25 24 28 23 26 28 26 24 24 25 25 25 27 25 27
18 18 17 17 17 18 18 18 19 18 18 17 18 18 19 18 19 19 21 21 21 19 20 21 21 22 23 22 23 21 22 21 20 21 20 20 20 18 18 16 17 19 18 18 19 16 16 20 22 21 24 25 24 24 24 24 21 23 29 28 28 27 25 29 26 26 25 24 22 26 26 23 24 26 27 28 27 26 26 27 27 25 25 24 27
18 18 17 17 16 16 17 18 17 18 18 18 19 18 18 18 18 18 19 19 21 20 21 23 22 22 22 23 23 22 23 22 22 22 21 21 21 21 19 19 15 16 15 16 17 17 18 20 21 21 21 24 24 21 20 21 21 23 22 26 24 25 24 23 25 26 25 27 22 26 26 23 31 28 28 26 26 28 29 28 26 26 25 25 26
17 18 16 16 16 17 16 17 16 17 17 17 18 18 18 19 19 20 20 21 20 21 21 22 21 21 22 22 22 22 23 23 23 23 22 22 22 21 21 20 17 16 17 16 15 18 18 21 21 21 21 23 24 25 24 26 26 24 23 24 28 27 26 26 27 24 25 25 25 25 23 27 27 26 24 27 26 28 26 26 24 25 26 24 25
17 16 17 15 15 16 16 16 16 17 17 17 17 18 19 19 19 19 20 21 21 21 20 20 21 21 23 23 23 22 23 23 24 24 24 23 23 22 21 21 19 16 16 19 20 19 21 20 21 23 20 20 23 24 25 24 23 24 22 23 29 28 27 27 29 26 23 24 22 25 26 29 26 28 23 24 24 26 28 27 24 25 25 24 27
16 16 16 15 15 16 16 17 17 17 17 18 18 19 19 19 20 20 19 18 20 21 21 21 21 22 22 23 24 24 23 24 25 26 26 25 24 23 22 22 20 18 16 17 15 18 22 22 21 20 22 21 22 23 22 21 20 21 21 22 24 31 29 27 29 23 18 21 23 23 24 22 24 27 30 24 25 25 28 27 26 25 24 26 26
15 15 16 16 16 15 14 15 16 16 16 17 17 18 18 19 19 19 19 19 19 20 19 19 18 19 20 21 22 23 24 26 27 28 26 25 25 24 23 22 21 20 19 20 18 18 20 20 20 19 22 25 22 22 23 20 17 18 20 22 20 24 25 25 26 21 19 21 25 25 25 24 24 25 27 23 25 26 28 27 27 24 24 25 26
15 15 15 15 16 15 14 14 14 15 16 16 17 18 18 18 18 19 19 20 20 19 18 18 18 19 20 20 21 22 24 24 26 29 28 27 25 23 23 22 21 21 20 21 20 21 20 20 19 19 22 22 23 18 19 16 19 20 22 23 22 21 22 23 23 23 18 21 24 25 26 27 26 24 26 25 25 27 24 24 26 27 27 26 25
14 15 14 15 15 15 15 14 15 16 16 17 18 17 17 17 17 17 18 19 18 17 18 17 18 19 20 20 20 21 24 23 27 26 21 24 24 22 22 21 20 21 21 21 20 20 19 18 21 24 21 22 23 20 19 19 18 17 17 18 18 18 19 20 22 19 21 21 20 22 22 27 27 24 28 27 21 26 25 24 26 25 25 27 25
14 14 15 15 15 14 14 15 15 15 16 17 17 18 18 17 17 17 18 18 18 18 18 19 18 18 21 20 20 20 23 28 28 23 25 26 24 22 21 19 19 20 19 20 21 21 20 21 18 20 22 21 24 22 20 20 20 21 22 18 13 18 20 20 19 20 19 23 23 24 24 26 25 27 26 24 24 25 28 27 27 27 31 28 30
15 14 15 14 14 14 13 14 15 15 15 16 18 18 17 17 17 17 17 17 18 18 18 19 19 18 19 22 20 21 22 25 24 27 26 27 23 25 20 18 19 18 19 20 20 20 21 21 20 18 22 26 25 26 24 20 19 20 20 20 20 17 16 18 17 20 19 21 23 22 24 26 27 26 28 25 25 24 23 28 30 27 26 28 32
14 15 14 15 14 13 14 14 14 14 15 15 16 17 17 17 18 17 17 17 16 18 19 19 20 20 19 21 21 22 22 26 26 28 27 28 25 23 19 18 18 18 19 20 19 20 21 21 21 22 22 27 27 27 26 27 21 20 19 18 16 15 18 18 17 21 20 20 22 24 23 25 27 27 24 24 23 25 22 24 26 28 29 27 24
14 14 15 15 14 13 13 14 13 14 14 14 14 16 17 18 16 15 15 16 17 17 17 18 18 19 20 19 20 21 24 27 27 29 28 29 26 21 16 18 17 18 19 19 19 19 20 21 22 24 24 24 28 31 29 27 27 26 23 21 20 19 15 15 20 22 18 19 20 24 26 24 27 25 23 22 25 27 27 26 25 24 25 26 23
13 14 14 14 14 14 14 14 14 14 14 15 15 16 16 16 17 16 16 16 16 17 16 17 18 18 18 19 19 20 25 27 26 27 28 29 29 21 17 18 18 18 18 18 18 21 20 22 21 23 24 23 30 32 31 30 28 25 24 22 21 20 20 19 19 23 23 21 20 22 24 26 26 26 25 27 28 29 29 28 30 28 30 27 26
13 13 13 13 14 14 14 13 13 13 15 15 15 16 16 16 16 15 15 16 16 15 15 15 17 18 19 19 18 19 22 23 25 27 28 30 28 19 20 19 19 19 19 19 19 20 20 21 21 22 23 23 28 27 26 31 26 25 25 23 22 21 20 15 22 23 22 24 24 25 26 24 20 23 22 23 23 23 24 27 29 28 32 32 32
13 12 13 13 13 13 14 14 13 14 14 14 15 15 15 16 15 15 14 14 14 14 14 15 16 18 19 20 20 19 20 21 22 25 27 30 24 22 21 21 20 21 20 19 20 21 20 21 21 22 23 24 26 24 24 25 25 24 24 24 24 23 23 22 21 24 25 26 25 24 24 23 23 24 24 23 21 17 18 22 25 26 31 30 29
12 13 13 13 13 13 13 14 14 14 13 15 14 13 14 14 14 14 14 14 14 14 14 15 15 17 18 20 22 19 19 19 19 22 25 28 27 23 22 22 21 21 20 19 19 20 25 28 25 24 25 26 24 23 23 26 24 25 24 26 25 24 24 26 29 27 20 21 22 23 23 22 24 25 24 23 23 15 16 23 25 24 28 26 33
12 12 12 12 12 12 13 13 13 13 14 14 13 13 14 14 14 13 13 12 14 14 15 15 15 16 18 18 15 19 19 18 17 19 22 23 30 24 23 22 21 22 22 20 18 19 18 20 27 27 27 28 23 21 21 23 23 22 24 24 25 24 25 28 30 32 32 32 28 26 25 20 22 24 23 21 23 19 23 27 24 25 26 29 34
11 11 11 11 11 12 11 12 13 13 13 13 13 13 13 13 14 14 14 15 16 15 14 14 15 17 17 17 17 18 20 21 20 19 21 22 24 29 20 23 23 22 21 22 20 18 19 20 19 25 25 22 21 20 19 19 22 21 21 22 24 26 27 30 29 30 30 30 29 27 27 27 27 28 29 27 23 21 22 24 26 27 27 29 32
10 10 10 10 12 13 12 12 12 12 13 12 11 12 13 13 13 13 13 15 14 14 13 13 14 14 15 15 16 14 16 20 19 16 17 19 20 22 21 24 23 23 22 22 21 20 21 22 21 22 23 22 21 20 20 19 19 21 21 21 22 25 23 25 29 22 26 26 26 26 27 26 26 27 27 28 28 27 26 22 25 26 28 28 32
9 9 9 11 11 12 12 11 10 10 12 12 11 11 12 13 13 13 13 13 13 14 14 13 13 13 13 14 15 16 15 16 19 15 15 15 13 18 22 23 24 23 22 22 21 20 21 22 22 22 21 21 23 22 20 17 18 19 23 18 20 20 25 23 23 23 24 25 26 26 26 27 29 29 29 29 30 30 31 31 28 28 29 29 31
10 10 11 12 10 10 10 10 9 10 10 10 11 11 11 11 12 12 12 11 12 12 13 13 13 13 13 14 14 17 18 17 14 17 12 13 11 13 15 17 15 22 21 23 21 21 20 22 21 20 20 22 21 22 20 20 15 20 19 19 19 21 19 19 21 22 23 24 25 26 26 28 30 31 30 31 31 32 34 33 32 31 28 28 30
11 11 9 10 9 9 9 9 9 9 10 10 10 11 12 11 11 13 12 12 12 13 13 13 13 13 14 13 15 15 15 16 14 16 15 14 10 15 16 17 14 20 24 22 20 21 22 23 22 20 21 21 20 21 20 18 19 15 17 22 24 16 21 23 21 23 23 23 24 25 28 30 31 31 32 33 34 35 36 33 33 31 33 35 34
10 11 11 10 9 9 9 9 9 10 9 9 10 11 11 11 12 12 11 12 12 12 13 14 13 14 14 15 15 16 16 15 16 16 14 13 12 15 17 16 14 16 22 20 19 22 18 19 20 19 20 20 19 21 15 12 15 16 16 25 19 23 23 24 24 24 24 25 25 25 26 26 27 28 31 33 34 34 31 32 32 33 34 33 33
12 12 12 10 9 10 10 9 9 10 9 9 10 11 11 12 13 13 13 14 14 14 14 15 15 15 15 15 15 16 15 15 17 19 16 15 14 15 15 14 16 18 19 17 14 19 20 19 21 20 20 19 21 19 20 21 16 17 19 25 25 25 24 25 26 26 25 25 25 26 27 27 28 28 28 27 28 29 30 31 33 33 33 34 36
12 11 11 11 9 8 9 10 11 9 8 8 9 10 11 11 12 14 15 15 14 14 14 15 15 16 16 15 16 16 16 16 19 21 22 22 23 22 23 22 15 15 20 21 19 22 26 24 23 21 19 19 19 18 16 14 22 26 29 29 26 26 24 24 26 26 25 26 25 26 26 27 28 27 27 28 27 26 26 30 33 32 33 35 36
14 13 12 11 12 11 10 5 11 9 9 10 10 11 11 12 13 15 16 16 17 15 16 15 16 17 17 16 16 17 17 17 20 23 23 23 23 23 22 22 22 23 23 23 25 27 27 19 17 16 17 18 19 19 21 21 23 25 26 26 25 25 21 16 16 23 23 24 25 26 26 27 27 28 28 27 27 26 27 29 29 30 31 33 35
14 13 14 13 12 12 12 12 12 10 12 11 13 15 15 14 15 16 16 17 17 17 16 15 16 16 17 17 17 17 17 18 20 12 21 15 23 24 23 22 23 22 18 21 28 25 23 19 17 18 20 20 21 22 22 24 23 23 24 26 24 25 25 25 26 26 26 26 27 27 28 28 28 27 28 28 28 30 28 29 27 28 29 27 31
15 14 15 14 13 13 12 12 10 10 11 15 16 16 9 11 13 16 15 12 11 10 10 16 17 17 17 16 16 16 17 18 13 15 15 15 16 16 16 18 17 22 21 24 25 24 20 17 17 19 19 20 21 21 24 23 24 24 23 18 25 25 26 25 25 26 26 26 26 26 27 27 28 29 29 29 29 30 29 24 28 27 27 28 28
17 16 16 15 15 14 14 13 13 12 10 15 18 17 16 15 14 14 13 11 9 11 12 11 9 9 16 17 14 13 11 8 12 14 16 16 17 17 17 17 19 19 19 24 23 20 18 17 17 18 19 19 19 20 21 21 22 22 24 23 23 24 24 25 26 25 25 25 25 25 25 26 28 29 29 29 30 31 30 27 26 25 26 26 27
18 17 17 16 15 14 14 13 12 11 12 12 16 18 18 19 16 9 10 11 11 10 10 9 8 7 6 10 14 14 9 12 14 15 16 17 17 17 17 17 18 20 20 19 18 16 17 17 17 18 19 18 18 19 20 21 21 23 23 23 23 23 24 25 27 26 26 25 26 24 25 26 26 27 28 28 28 29 28 29 27 27 26 25 25
18 17 17 17 17 16 16 14 13 13 12 12 11 12 16 19 20 18 15 8 10 10 9 9 9 9 8 7 7 8 9 12 14 15 16 17 18 17 18 19 19 18 20 20 11 13 16 16 17 17 18 18 19 20 20 19 21 21 22 23 23 23 23 23 24 24 23 25 26 25 26 26 26 26 26 26 27 29 28 28 27 25 26 27 26
18 18 17 17 17 17 17 16 15 15 13 13 12 13 12 12 18 19 19 18 16 10 8 9 10 11 10 9 9 10 10 11 12 14 16 17 18 19 17 22 17 18 16 19 16 16 16 17 17 17 18 18 18 19 19 20 21 21 21 22 22 22 22 22 23 24 24 25 24 24 24 26 25 27 28 28 27 26 26 25 26 27 27 27 28
21 11 9 11 18 17 17 17 16 15 14 13 13 12 11 9 10 15 17 17 16 18 20 19 14 14 16 13 11 12 11 10 10 12 15 16 19 19 23 23 16 15 17 17 15 16 16 16 17 17 17 18 19 19 19 20 21 21 22 23 23 23 23 23 23 24 25 25 25 25 26 26 25 25 26 27 27 28 26 26 26 26 28 27 27
21 20 20 18 17 17 17 17 16 16 14 14 13 12 12 11 11 12 11 11 11 12 15 22 21 16 17 12 10 12 12 12 12 12 13 15 19 20 19 14 16 14 14 13 15 15 15 14 15 16 17 17 18 18 20 20 20 21 21 23 22 23 23 24 23 24 24 24 24 25 24 26 26 26 26 28 27 27 27 27 27 26 26 26 26
22 21 20 22 21 18 17 16 16 16 10 12 12 13 12 11 10 11 11 11 11 10 13 19 21 19 14 18 18 16 15 13 15 15 15 16 17 21 18 15 16 15 14 15 15 15 16 15 15 16 17 17 17 19 19 20 20 20 15 21 22 22 23 24 25 21 25 25 26 25 25 25 26 25 27 26 27 28 27 28 28 26 26 26 22
22 21 20 20 20 20 19 18 15 11 14 14 14 13 13 13 14 13 11 11 9 12 12 17 14 19 20 18 18 14 16 16 17 15 16 17 17 17 15 13 15 15 15 15 15 16 16 16 15 16 17 17 17 18 19 19 20 20 21 21 21 21 18 24 20 22 23 24 25 25 24 25 26 26 24 25 26 26 28 27 28 29 29 28 25
23 15 13 15 13 20 20 18 17 17 17 16 16 15 14 14 13 13 13 14 14 13 12 11 13 13 16 15 15 14 14 15 14 13 14 14 13 14 14 14 14 15 15 15 15 15 16 16 16 16 16 17 17 18 19 19 19 20 21 21 21 21 22 22 23 23 22 23 24 23 24 25 26 27 27 26 25 25 28 29 28 28 29 30 30
24 21 14 15 19 17 17 17 17 17 17 18 17 16 16 15 13 13 13 13 12 11 11 10 10 9 15 13 15 16 16 13 13 13 13 14 14 13 14 14 14 14 15 16 15 15 15 16 17 17 17 16 17 18 18 19 19 20 20 20 20 20 22 22 22 23 23 25 26 26 26 26 27 27 26 25 25 26 27 28 27 28 29 29 30
25 23 16 15 16 21 18 18 18 18 18 18 17 16 16 15 15 14 14 11 11 10 10 10 10 14 17 16 8 10 17 14 13 12 12 13 13 13 14 13 14 14 14 15 15 16 16 16 16 16 16 17 17 17 18 19 19 20 20 20 20 19 22 22 24 24 25 25 25 26 26 27 27 28 28 27 22 24 26 26 27 27 28 27 29
25 23 23 23 19 21 20 19 18 18 16 16 17 16 15 15 15 14 12 12 11 11 11 10 12 18 16 16 11 9 16 13 11 12 12 12 12 12 12 12 12 13 14 15 15 15 15 15 14 15 15 16 17 17 18 19 20 20 20 20 21 20 21 22 23 23 24 25 25 25 26 27 28 28 29 20 27 27 27 27 27 28 28 29 29
23 22 23 22 26 24 21 20 19 18 19 18 17 11 12 14 14 13 13 12 12 12 12 12 14 19 17 11 13 10 14 10 6 10 7 11 8 12 9 8 8 8 10 12 11 12 12 12 13 12 12 14 14 16 17 17 18 19 19 20 20 20 21 21 23 24 24 25 26 26 27 27 27 27 26 25 26 27 27 29 28 28 27 29 28
23 23 23 22 23 22 20 19 19 18 18 15 14 16 16 15 14 13 14 14 15 13 13 12 13 18 18 19 16 16 11 9 8 7 6 9 8 9 9 8 8 9 9 9 9 9 12 12 12 12 11 13 13 12 14 15 16 17 18 19 19 19 20 20 22 24 26 27 28 28 27 27 27 27 26 26 26 29 29 28 29 29 30 29 30
25 24 24 24 23 23 23 20 18 19 17 16 18 17 16 16 16 16 15 15 14 14 14 12 12 16 18 18 17 15 11 11 10 9 8 8 8 7 8 8 7 7 9 9 7 8 10 11 11 11 12 13 12 13 14 14 14 15 16 18 19 19 20 21 23 25 26 26 28 28 28 28 27 27 27 27 27 28 29 28 30 25 30 29 28
26 25 24 24 24 22 22 20 18 19 20 19 19 20 18 18 17 16 16 15 13 14 14 14 13 14 15 16 16 16 15 12 9 8 10 8 8 8 8 8 8 9 9 8 7 7 9 11 11 11 12 13 13 14 14 12 13 13 14 14 16 17 19 21 23 25 26 25 27 28 28 28 27 26 25 29 28 29 29 30 28 28 29 29 28
25 24 24 25 26 23 21 20 20 21 21 22 20 19 19 19 18 17 14 15 15 13 14 13 13 13 13 14 13 12 12 12 12 9 9 9 9 8 7 8 9 9 9 7 6 8 6 8 9 10 11 12 14 13 13 14 13 14 13 16 15 17 19 24 25 25 25 26 27 28 28 28 28 27 28 29 28 29 28 29 29 29 29 28 29
27 25 25 25 25 25 24 22 22 16 20 19 19 19 18 19 19 17 17 16 15 15 15 14 14 13 12 12 12 12 11 12 11 10 8 8 9 9 8 8 8 10 9 8 7 7 8 8 8 9 11 11 12 13 13 13 13 16 14 16 16 20 25 24 26 25 25 27 28 26 27 27 26 27 27 28 28 29 30 30 29 29 28 28 28
27 27 26 27 25 25 25 25 21 22 22 21 21 21 20 20 20 20 17 17 17 16 16 15 15 14 13 12 11 11 11 10 11 11 11 9 9 7 7 7 9 9 11 9 9 7 8 8 7 9 9 11 11 12 13 11 12 12 14 15 20 22 23 25 26 28 29 30 26 27 26 25 25 25 27 27 28 28 28 28 28 29 29 27 28
27 25 25 25 23 23 23 23 23 23 23 22 22 22 21 19 20 18 18 18 17 17 17 16 15 15 14 13 13 12 12 12 12 12 11 12 11 9 9 9 10 11 10 10 10 11 10 9 10 9 8 10 11 12 12 12 14 16 15 21 21 22 23 27 26 26 31 28 30 27 26 25 25 26 27 27 26 27 27 27 28 28 28 28 27
24 24 24 24 24 23 23 23 24 25 24 24 24 23 22 21 20 19 18 18 18 18 17 17 15 14 13 13 11 12 13 12 11 11 12 11 11 10 11 10 12 11 12 13 13 12 12 11 12 10 11 9 11 14 14 15 17 18 18 20 20 21 25 27 31 25 29 27 29 27 24 23 24 26 26 26 27 26 28 28 28 27 28 28 26
Wind_Speed
5 4 5 6 7 7 7 7 8 7 7 7 7 7 6 6 7 6 6 8 6 6 8 6 5 4 5 6 7 8 7 7 6 5 5 5 5 6 5 4 4 4 5 3 1 3 5 6 4 4 4 5 3 3 5 5 5 6 6 6 6 5 7 7 8 11 10 5 6 8 5 0 4 5 6 7 5 7 11 16 16 10 9 10 12
5 4 6 5 6 7 8 7 7 8 8 8 7 7 7 6 7 7 8 8 7 8 9 8 9 9 10 12 12 12 12 11 10 8 9 9 8 5 6 6 6 6 4 4 3 4 4 5 5 4 3 3 2 2 4 4 5 4 4 5 6 7 6 5 5 8 11 6 5 6 8 5 6 4 6 8 5 4 6 8 11 13 8 9 9
7 4 6 5 6 6 7 7 6 7 7 6 7 7 7 7 8 7 7 6 7 10 10 10 10 10 10 10 10 10 10 10 10 11 11 11 11 11 10 7 5 3 3 4 5 3 3 4 6 5 5 4 1 2 2 3 2 4 6 6 6 6 5 3 5 6 4 5 5 8 5 4 4 8 8 7 5 2 5 6 9 10 13 8 8
6 7 4 4 6 6 6 6 7 7 6 6 7 6 6 6 7 6 7 7 9 9 9 9 10 10 10 11 11 11 12 11 11 10 10 10 10 10 11 11 9 8 5 5 5 5 5 5 6 8 9 9 9 8 5 3 2 2 4 3 1 4 4 4 5 5 3 5 4 7 6 6 5 5 6 6 5 4 3 5 5 6 9 11 11
5 6 6 6 5 4 4 5 6 7 6 5 7 6 6 6 7 8 7 7 8 7 8 8 9 11 11 13 12 12 12 11 11 11 10 9 9 9 10 10 9 7 6 3 4 3 5 7 9 10 10 10 10 9 10 12 8 5 5 5 4 3 3 1 5 6 8 8 8 6 6 5 6 6 4 5 6 5 4 5 5 4 6 4 4
4 4 5 4 4 5 5 5 5 5 6 6 6 6 6 7 6 6 7 7 7 7 8 8 9 11 12 12 12 11 11 11 11 11 11 11 10 9 9 9 9 7 7 7 7 5 7 9 11 11 9 8 7 6 9 10 11 10 11 10 9 7 5 3 3 3 7 9 8 8 5 6 4 4 3 5 6 6 6 6 3 1 2 6 4
4 3 4 4 3 5 4 4 3 4 5 4 5 6 6 6 8 7 6 7 7 6 8 8 7 9 10 11 11 12 11 11 11 11 11 11 10 10 9 9 9 6 7 9 8 8 10 11 10 10 10 10 10 10 9 9 7 8 9 8 8 8 7 6 4 4 6 8 7 5 6 4 4 7 5 3 4 5 7 8 8 0 2 3 4
3 3 3 3 4 4 3 2 3 3 2 3 4 4 5 6 6 6 7 8 8 8 6 7 7 8 9 9 10 10 11 11 11 12 10 10 10 9 9 9 9 8 9 10 10 10 11 10 11 11 11 11 10 9 10 8 8 7 8 7 8 8 7 7 6 6 5 6 6 6 5 5 6 5 6 4 5 5 3 2 5 8 8 5 4
3 3 3 3 3 3 3 1 1 2 3 4 3 4 4 4 5 6 6 7 6 7 7 7 6 9 10 10 10 9 9 9 8 10 10 11 9 9 9 9 8 9 9 9 9 9 9 10 10 10 12 15 17 12 10 9 7 8 8 7 7 7 7 7 7 6 6 6 7 5 5 5 4 5 7 6 7 8 6 3 4 5 7 7 7
2 3 3 3 2 3 3 3 4 3 3 4 4 5 5 5 5 6 7 7 7 8 9 9 9 9 11 11 9 8 8 7 13 17 11 8 8 7 7 7 7 8 8 7 7 9 10 7 10 17 16 16 16 15 13 11 10 7 7 7 7 6 6 7 7 7 8 8 7 7 7 6 6 6 5 5 5 6 7 6 6 7 6 6 7
2 2 3 2 2 3 2 3 3 5 4 5 5 6 6 5 6 7 6 6 7 7 6 8 9 9 11 10 10 8 7 9 18 16 16 14 8 7 6 6 8 8 8 7 8 10 9 9 7 12 14 15 13 17 13 14 13 13 13 12 8 5 6 7 6 7 7 8 8 8 7 7 7 5 6 6 6 6 6 5 5 6 5 5 7
2 3 3 3 4 4 4 4 5 4 4 6 6 6 6 6 6 6 5 5 6 5 7 8 8 8 9 10 10 9 8 14 18 19 18 18 12 7 6 5 7 7 7 7 7 8 9 10 8 7 9 15 13 12 14 14 14 14 13 13 14 13 6 4 6 7 8 8 9 8 9 8 9 7 7 10 11 10 8 7 6 5 5 4 5
2 3 3 4 4 2 4 5 5 4 5 6 5 4 6 6 6 5 5 5 4 6 8 8 8 8 8 10 9 9 8 15 19 21 20 19 19 11 5 8 7 7 7 7 7 9 9 9 9 10 9 19 14 12 12 13 13 12 11 12 11 12 14 15 10 7 7 8 9 10 10 11 12 10 10 10 10 10 10 9 8 7 5 7 7
3 3 4 4 4 4 5 5 5 5 5 5 5 6 6 6 5 5 5 5 5 6 7 8 7 7 7 8 8 8 8 14 19 21 21 21 20 13 7 8 7 7 7 6 9 9 9 8 9 9 9 10 10 12 12 12 11 10 10 9 9 10 12 10 15 14 12 7 7 8 9 8 9 10 10 9 9 9 9 10 10 10 9 9 10
3 3 3 4 4 4 5 5 5 5 5 5 5 6 5 4 5 4 4 4 4 5 6 7 7 7 7 6 7 7 7 16 19 21 21 21 20 13 8 7 7 6 6 6 10 9 10 9 9 8 8 9 10 13 12 12 10 9 10 10 10 10 8 8 10 11 9 8 7 8 9 7 8 10 9 8 8 8 8 9 10 10 11 10 10
4 3 4 3 4 4 5 5 4 5 5 5 6 6 4 4 5 3 3 3 3 4 5 6 7 7 6 6 6 7 8 15 18 19 21 20 18 9 9 8 8 7 6 8 9 9 9 9 8 8 8 9 13 16 13 12 8 9 10 10 10 9 8 10 11 10 9 9 8 9 9 10 10 11 12 10 9 8 8 8 8 8 9 8 9
5 4 4 4 4 4 4 5 4 5 5 5 5 4 4 4 3 3 2 3 3 3 5 5 5 5 6 6 5 6 7 12 17 18 20 21 13 8 8 8 8 9 9 6 9 8 8 9 9 7 7 9 13 16 15 14 9 10 10 11 10 8 8 9 11 11 11 12 14 14 16 16 17 17 18 19 13 10 5 7 8 6 7 8 8
4 4 4 4 4 4 4 5 5 5 5 6 4 3 3 3 3 3 2 3 2 3 4 5 4 4 4 4 5 6 6 9 13 15 17 20 13 8 8 8 8 9 10 7 6 6 11 20 15 8 8 8 13 15 16 12 9 9 10 12 12 11 10 11 10 9 12 12 13 14 14 15 16 15 13 14 16 11 2 7 10 10 9 8 9
5 4 4 4 5 5 5 5 5 5 6 4 3 3 3 3 3 3 4 3 3 3 3 3 3 3 2 4 7 7 6 7 12 13 15 17 13 7 8 8 8 9 8 9 5 3 3 9 14 10 9 9 14 15 16 11 8 9 9 10 10 10 10 12 12 12 12 12 12 12 11 13 13 12 12 16 16 16 12 11 10 10 10 10 10
5 5 5 4 4 5 4 5 4 4 5 4 3 3 2 2 2 2 3 4 4 3 3 1 4 3 2 3 5 5 8 6 8 12 13 15 15 8 7 8 9 9 8 8 7 6 8 6 7 12 14 15 15 15 15 15 7 8 8 9 10 11 10 9 9 9 9 9 9 10 10 11 11 11 12 12 12 12 11 11 10 9 9 9 9
4 4 4 5 5 6 5 4 4 3 3 2 2 2 2 2 2 3 2 2 1 2 3 3 2 2 1 3 6 5 6 7 7 9 11 10 13 11 6 7 7 6 6 7 7 7 7 8 6 11 15 17 17 16 15 14 11 7 7 8 8 11 11 8 9 11 9 9 10 10 10 9 9 9 10 11 11 10 10 10 9 9 9 9 9
4 4 5 6 5 5 5 3 2 3 2 2 1 1 1 1 1 2 2 1 1 1 1 2 1 2 2 5 8 7 8 9 5 9 11 10 11 12 7 7 7 6 6 6 6 6 7 7 7 10 16 17 19 18 16 14 13 5 8 12 15 14 11 8 6 8 8 9 9 9 10 10 11 11 11 12 12 12 11 10 10 10 11 10 11
5 5 6 6 5 5 3 2 2 2 1 1 1 1 1 0 1 1 2 2 1 1 2 2 2 2 2 5 6 7 6 6 8 8 10 9 9 11 10 6 8 7 5 5 6 6 6 6 8 13 17 17 17 18 17 17 10 5 11 13 16 12 11 7 9 8 8 9 9 9 9 9 10 11 11 12 12 12 11 11 12 13 11 10 11
6 5 4 5 5 5 5 4 2 3 1 0 1 2 1 1 1 1 0 2 3 2 3 2 2 3 3 4 4 5 7 6 10 12 9 10 9 11 10 9 9 8 6 4 5 6 7 8 9 16 17 16 16 15 15 14 8 10 10 13 14 9 8 8 8 9 9 9 9 9 9 8 8 9 10 10 11 12 11 11 11 11 10 10 11
5 5 5 5 3 3 2 2 2 1 2 1 1 2 1 2 3 3 3 3 3 3 3 3 4 4 4 3 3 3 3 8 7 9 12 11 10 11 11 10 11 12 7 4 6 6 10 14 14 15 15 15 15 12 10 8 12 15 11 14 13 8 8 7 7 8 8 9 9 8 9 9 9 8 9 9 9 9 10 10 11 10 10 10 10
6 6 6 5 4 5 4 3 2 2 1 1 2 1 1 3 3 4 4 4 4 4 3 4 4 4 4 3 4 4 5 6 7 7 9 10 9 11 11 10 11 12 9 6 10 13 12 14 15 13 12 10 6 3 5 7 9 13 13 14 6 9 9 9 9 10 9 9 9 9 10 10 10 10 10 9 9 9 10 11 11 12 12 12 13
6 5 5 5 4 4 5 5 5 4 3 2 2 2 2 4 5 5 4 4 4 4 4 4 4 4 4 4 4 4 4 6 6 7 7 7 7 8 8 7 10 9 7 7 9 9 12 11 10 13 10 11 7 3 3 6 7 6 6 7 6 7 8 7 8 9 9 9 8 8 9 9 9 9 10 10 10 10 10 10 10 11 11 11 11
6 6 6 5 5 4 3 3 1 3 2 1 3 3 3 5 6 5 4 3 3 3 4 4 4 4 4 4 4 4 4 5 6 6 6 6 6 6 6 6 6 6 6 7 9 10 9 11 10 2 6 5 6 5 6 5 6 6 6 7 6 7 9 10 9 7 7 7 7 8 8 8 9 10 10 9 9 10 11 11 11 11 11 11 10
7 7 6 6 5 5 4 3 4 3 5 5 5 5 3 3 6 5 3 3 3 2 3 3 3 2 3 4 4 4 4 4 4 3 4 5 5 6 6 5 5 5 7 10 10 9 8 6 4 5 5 6 6 6 6 6 5 6 6 7 6 7 7 6 8 8 8 8 9 9 9 9 9 9 10 10 10 10 10 10 10 11 10 9 10
7 7 6 5 5 5 5 5 5 3 5 6 6 4 6 9 5 6 4 5 7 4 2 3 1 1 2 4 4 3 2 2 3 5 6 7 8 8 8 9 8 7 10 14 8 6 7 4 5 5 6 5 6 6 6 6 6 6 6 7 7 7 7 7 8 8 8 8 9 9 9 10 10 10 10 10 11 11 10 10 10 10 10 11 11
7 6 7 6 6 6 4 4 4 4 4 8 6 7 5 6 12 10 11 7 6 6 7 7 5 4 3 2 4 6 6 3 3 5 7 7 8 9 9 9 9 9 7 8 7 4 6 4 5 5 5 5 5 6 6 6 6 6 6 6 6 7 7 7 8 8 8 8 8 8 9 9 10 10 10 11 11 11 10 10 10 9 9 10 11
7 7 7 6 7 7 6 5 5 5 4 5 8 7 7 6 4 7 7 7 5 3 4 6 6 6 5 3 2 3 5 2 3 6 7 8 8 8 9 8 9 9 9 2 3 6 3 5 4 5 5 5 5 5 5 6 6 6 6 6 7 7 7 7 9 9 8 8 8 8 9 9 9 10 10 10 10 10 11 11 10 10 9 9 9
8 8 8 7 7 8 6 5 5 4 4 5 5 6 8 8 7 5 2 3 2 4 4 4 5 6 4 3 1 2 2 4 6 8 8 8 8 8 9 10 8 8 7 6 3 4 4 4 4 4 4 5 5 5 5 5 6 6 6 6 6 7 6 7 8 8 7 8 8 8 9 9 9 9 9 10 10 11 11 10 10 9 10 10 10
9 7 7 7 8 7 6 5 5 5 4 4 4 4 4 6 8 7 7 5 3 4 6 6 6 5 4 5 6 7 8 8 7 8 8 8 9 9 9 10 11 9 5 3 4 3 4 3 3 4 4 5 5 5 5 5 5 6 5 6 6 6 6 7 8 8 7 8 8 8 9 9 9 10 10 10 10 10 10 10 10 10 10 10 10
9 7 7 8 7 7 7 6 6 6 5 5 5 4 3 2 5 8 8 7 7 7 6 6 7 9 6 6 8 10 9 9 7 7 8 9 8 11 12 7 4 3 3 4 3 3 4 4 3 4 4 4 4 5 5 6 6 6 6 6 6 6 6 7 7 7 8 8 8 9 9 9 9 9 9 10 10 10 10 10 10 11 11 11 11
9 8 6 4 6 7 7 7 6 5 5 5 4 4 3 3 3 2 2 4 5 5 6 6 6 9 11 9 9 10 10 9 8 7 8 9 8 8 5 4 3 4 4 4 4 4 3 3 4 4 4 4 4 4 5 5 5 6 5 6 6 6 6 7 7 7 7 8 8 9 9 9 9 9 10 9 10 10 9 10 11 10 11 11 11
9 8 8 7 6 5 6 7 6 6 5 4 4 4 3 3 3 3 3 3 4 3 5 7 6 4 5 6 9 9 11 8 8 7 7 8 8 4 3 5 3 3 3 3 4 3 3 3 3 4 4 4 4 5 5 5 5 5 5 5 5 6 6 6 7 6 7 7 8 9 9 9 10 10 10 10 10 9 9 10 10 11 10 12 12
9 9 8 9 8 7 5 5 6 6 5 4 4 3 4 4 4 4 3 4 2 2 2 7 6 7 7 7 10 7 7 10 7 5 6 6 4 4 5 2 3 2 3 3 3 3 3 3 3 4 4 4 4 5 4 4 5 5 5 5 5 4 7 7 7 7 7 7 8 8 8 8 9 9 9 9 9 9 10 10 11 11 11 11 10
9 10 11 13 11 9 6 6 5 5 6 5 4 4 4 4 5 5 5 3 3 3 2 5 7 6 7 6 5 4 4 3 3 4 4 3 1 0 2 2 2 2 2 2 3 3 3 3 4 4 4 4 4 4 4 4 4 5 5 5 5 5 6 5 6 6 5 6 7 7 7 8 8 8 8 8 9 10 11 11 11 11 11 11 11
10 9 8 13 10 8 8 8 6 7 6 6 6 5 4 5 5 5 4 4 4 4 5 3 3 3 7 6 4 2 1 2 3 1 2 1 0 0 1 2 2 2 2 2 2 3 3 3 3 3 3 3 4 4 4 4 4 4 4 4 4 4 6 5 4 5 5 6 6 7 7 8 9 9 8 8 9 10 10 11 11 10 11 11 11
10 9 9 10 11 9 8 8 7 7 7 7 6 6 6 6 5 3 3 4 4 3 2 2 2 6 5 8 7 5 2 1 2 1 1 1 0 1 1 2 1 1 2 2 2 2 3 3 3 3 3 4 3 3 3 3 3 3 4 4 4 4 4 5 5 4 5 6 6 7 7 8 9 9 9 9 11 10 9 9 10 10 10 9 10
10 9 10 10 11 9 9 8 8 8 8 7 8 7 6 6 5 5 5 4 3 2 2 2 5 5 8 13 9 6 2 1 3 0 0 1 0 0 1 0 0 1 2 2 2 2 2 2 2 2 3 3 2 2 3 3 3 3 3 3 4 3 3 3 4 4 5 6 6 7 8 8 9 9 10 10 9 9 9 10 10 10 9 10 10
11 9 10 10 11 10 9 9 8 8 8 8 7 7 5 5 5 5 3 2 3 3 2 2 6 5 5 5 7 6 2 1 3 1 1 0 0 1 0 0 0 3 2 1 1 1 1 1 2 2 3 2 1 2 2 2 2 2 3 3 3 3 3 3 4 4 5 6 7 8 9 9 9 8 9 9 9 9 9 11 10 10 10 10 10
11 9 10 11 11 10 8 8 8 7 7 8 7 7 5 4 4 5 4 5 5 3 3 3 7 7 5 4 4 3 2 1 3 3 3 1 0 0 0 0 1 1 1 0 0 2 2 1 1 2 1 1 2 1 1 1 1 1 1 2 3 3 3 4 4 5 6 7 8 9 9 9 9 9 9 9 9 9 9 9 10 10 10 10 10
10 10 10 10 10 10 10 9 8 7 7 8 6 6 7 6 4 4 5 4 5 5 4 4 4 8 7 7 6 5 3 3 4 2 1 2 2 2 2 0 1 2 1 0 0 2 1 1 1 1 1 1 1 1 1 1 1 0 1 2 3 5 4 4 4 5 6 7 8 8 9 9 9 9 9 9 9 9 9 9 9 10 11 10 10
11 10 11 11 11 10 10 10 9 9 8 8 8 7 6 6 6 6 5 5 4 5 5 5 4 6 8 7 6 6 6 5 4 3 3 3 3 3 2 1 3 1 0 0 1 2 1 1 0 0 0 1 1 1 1 1 1 1 1 6 6 5 4 3 4 6 6 7 8 8 9 9 9 9 11 10 9 9 9 10 9 9 9 10 10
11 10 11 11 11 11 11 10 10 10 9 9 8 8 8 8 7 6 5 6 6 5 5 4 5 4 4 5 5 6 6 4 3 3 3 3 2 2 2 2 3 1 0 1 1 1 2 3 2 1 0 0 0 1 1 1 1 1 4 7 4 4 3 4 5 6 7 8 8 8 9 9 9 9 10 10 9 9 10 9 9 10 10 10 10
10 10 10 11 11 11 11 11 11 11 10 10 9 9 8 8 8 7 6 6 6 5 4 4 4 3 4 4 4 4 3 4 4 4 3 3 3 3 3 4 3 2 1 0 1 1 1 1 1 1 1 1 1 0 0 0 0 0 5 7 4 3 5 6 5 6 7 8 8 9 9 9 9 9 9 10 10 9 9 9 9 8 9 10 10
10 11 10 12 12 12 12 12 11 11 11 9 9 9 8 8 8 8 7 7 7 5 5 4 3 3 3 3 4 4 3 3 3 3 4 3 3 3 4 4 3 2 1 1 2 1 1 2 2 2 1 1 1 1 0 1 1 4 7 5 6 7 8 10 7 6 10 9 8 9 9 9 9 10 10 10 10 8 8 8 8 9 9 9 9
11 11 10 12 12 11 11 11 11 10 9 8 10 10 9 8 7 8 8 7 7 7 6 5 5 5 5 4 4 4 4 4 4 3 3 3 3 4 4 5 4 3 2 2 1 0 1 0 2 2 3 2 1 0 1 4 7 6 4 4 7 8 9 9 9 11 10 8 9 9 9 9 10 10 9 8 8 9 8 8 8 9 9 9 10
11 11 11 11 11 10 11 11 11 11 12 10 9 10 9 8 8 8 8 8 8 7 7 6 6 6 5 5 5 5 5 4 4 4 4 4 3 3 4 4 3 2 2 2 1 1 2 2 1 2 1 2 1 2 3 7 5 5 6 8 9 8 8 9 8 11 14 12 10 9 8 9 9 9 9 8 8 8 10 10 9 9 9 9 9
Wind_Direction
12 23 52 19 1 5 352 350 352 353 2 357 358 0 1 2 4 7 5 11 17 3 35 19 27 34 4 29 28 22 21 22 26 13 1 360 357 2 357 7 10 6 351 355 331 297 302 299 295 297 313 291 278 319 302 279 267 250 266 287 277 259 251 243 249 263 279 304 303 296 306 129 278 279 294 288 298 307 283 254 259 224 199 205 204
357 21 45 39 9 5 357 356 4 351 13 350 2 4 6 1 23 23 24 30 18 34 40 39 30 30 30 31 24 16 11 11 8 6 7 356 356 358 344 357 15 14 17 2 358 338 311 323 351 313 293 292 329 258 272 305 329 324 279 255 273 272 280 281 269 259 263 282 291 285 295 291 284 261 266 286 289 269 296 292 288 289 242 198 210
337 12 60 27 17 15 4 360 360 2 2 357 6 8 6 14 29 29 30 31 38 39 31 36 35 31 33 35 31 21 15 12 10 6 5 0 353 349 342 345 357 355 11 14 11 359 0 6 13 6 350 331 319 272 287 334 359 324 318 277 250 258 266 289 294 280 274 274 274 281 251 264 254 288 290 282 293 272 280 291 296 289 276 253 224
349 351 43 48 43 25 6 357 0 3 0 8 4 7 13 17 35 38 30 41 46 45 38 36 38 34 33 34 30 25 18 13 10 6 2 355 349 346 341 340 350 352 3 13 11 20 27 35 33 27 29 32 20 10 360 335 332 292 259 267 243 296 304 316 306 276 296 296 275 266 279 282 273 255 261 276 286 270 250 275 250 283 312 323 304
358 358 338 62 44 30 20 5 5 1 356 5 4 6 11 18 33 33 35 49 54 52 53 42 44 41 36 32 28 23 18 12 7 1 355 350 345 342 338 337 338 346 355 356 47 21 36 41 40 46 48 50 35 24 15 7 352 352 347 346 337 315 312 302 281 271 266 261 269 262 262 256 257 263 262 286 287 289 297 282 297 322 325 331 310
346 359 335 33 34 35 25 17 4 2 1 5 2 4 16 10 29 38 32 42 55 54 59 53 50 51 45 39 33 24 18 13 9 359 351 346 343 340 333 332 333 352 356 6 16 15 44 52 56 46 37 40 31 20 17 13 3 9 11 358 351 333 309 278 238 284 295 285 281 290 265 272 285 271 250 244 267 295 298 292 288 192 291 294 289
330 20 346 21 3 70 34 14 344 19 4 8 2 16 23 17 25 24 29 33 41 52 65 69 70 67 60 49 36 26 17 13 6 359 350 345 341 337 331 332 332 356 14 16 19 26 48 65 64 58 48 40 37 25 8 4 359 359 358 350 345 337 329 321 306 249 254 273 282 268 286 289 289 295 291 280 266 274 285 309 310 245 229 261 291
334 0 29 20 341 82 85 352 30 18 22 18 23 24 25 26 28 32 34 38 24 34 46 86 82 77 71 62 47 31 20 14 6 356 349 339 337 330 327 329 332 5 18 17 14 27 66 66 64 63 60 49 38 32 22 9 353 343 348 336 335 335 332 326 324 319 300 297 293 303 304 303 302 277 282 292 297 292 283 314 314 317 312 294 262
341 8 16 34 356 345 78 39 98 36 27 38 14 38 39 37 38 38 40 44 40 25 31 26 85 89 77 64 54 39 27 16 9 352 339 335 333 323 325 320 333 18 19 13 16 17 62 73 68 64 57 54 47 37 29 22 3 343 331 330 327 330 323 328 326 318 316 309 306 307 309 308 297 306 317 322 317 318 336 350 297 291 297 299 286
26 351 32 37 353 25 27 1 14 45 14 49 9 39 30 36 37 40 40 43 41 29 21 23 21 60 77 61 52 44 26 17 356 351 346 337 322 318 318 311 4 21 20 12 16 26 22 71 64 56 45 34 29 19 8 5 358 347 325 316 317 315 314 320 325 325 320 314 310 317 318 313 316 322 316 309 310 309 316 334 318 313 326 315 299
58 19 34 42 9 30 24 60 13 32 11 55 23 26 33 27 37 41 35 35 39 44 33 25 19 49 73 62 47 40 26 6 354 357 352 353 344 322 314 319 21 21 21 12 26 26 15 8 70 43 38 22 11 5 359 355 347 339 328 317 303 279 299 315 313 327 322 317 320 318 314 311 311 321 319 317 320 320 319 323 323 329 326 319 309
13 54 39 54 45 28 26 44 57 37 23 47 36 30 28 30 29 41 40 34 46 43 47 36 25 46 74 62 50 34 23 4 2 1 360 353 354 335 295 348 25 28 15 16 32 34 16 9 33 45 37 22 7 354 352 350 347 336 326 325 323 338 332 248 298 314 319 317 320 325 323 326 326 332 350 3 350 338 331 324 307 290 301 307 289
63 61 52 53 60 34 55 46 53 43 35 35 49 40 41 32 30 27 39 37 46 51 48 42 30 23 70 66 51 34 23 7 7 7 3 358 351 346 314 25 20 24 20 8 40 46 29 23 14 15 23 18 6 357 349 341 339 334 334 343 350 350 342 338 19 13 346 353 350 341 349 350 339 335 342 336 333 329 331 325 330 325 309 290 280
52 56 60 63 49 53 61 50 50 57 47 39 39 42 40 37 20 25 34 34 37 49 51 54 40 25 40 74 59 42 26 3 12 11 7 360 352 345 16 27 17 16 15 13 51 45 36 29 19 12 24 21 6 355 346 341 335 341 355 355 354 351 336 14 27 12 13 2 346 325 320 339 318 311 315 329 327 321 318 314 316 308 301 288 287
95 79 60 64 64 53 65 51 57 50 54 54 47 46 42 32 28 24 33 36 32 55 50 58 52 37 23 63 77 54 23 12 17 14 10 3 353 341 27 20 15 5 8 23 59 51 45 36 27 23 20 17 6 354 347 338 332 347 352 357 352 353 340 23 16 4 347 346 333 312 310 309 300 299 298 298 289 281 276 276 282 286 288 284 274
96 73 84 63 59 53 67 63 47 53 58 57 45 43 47 37 26 11 46 39 29 54 71 66 56 47 28 29 78 61 34 20 21 19 13 5 353 355 14 15 10 359 355 56 66 61 56 44 32 25 18 10 358 350 347 336 332 353 357 353 352 352 355 5 358 342 334 325 316 308 301 295 283 280 282 280 289 281 293 289 277 272 279 286 283
116 112 93 74 61 51 62 75 54 59 50 53 50 42 33 40 39 338 38 61 46 40 81 74 69 62 46 29 50 71 44 24 30 23 17 8 1 355 12 10 9 356 345 47 79 76 66 61 51 24 13 4 353 347 347 345 345 353 357 354 352 348 351 348 342 337 325 312 302 296 294 294 296 295 296 295 289 288 300 305 296 295 285 283 281
105 92 88 87 80 63 58 61 67 63 60 49 44 42 38 32 15 348 15 58 60 73 81 80 83 78 76 59 35 86 67 36 35 32 26 13 0 1 11 9 8 357 346 354 99 84 67 60 52 39 13 358 348 346 349 353 353 346 353 357 354 351 349 346 338 336 330 331 332 331 322 315 313 312 313 331 340 350 308 315 317 313 297 279 280
116 104 95 93 91 75 54 53 54 64 63 52 32 35 40 34 2 13 359 47 32 41 82 97 114 100 107 117 73 79 94 54 39 37 34 23 11 6 18 9 6 355 346 343 359 78 77 63 51 38 20 353 349 347 346 354 345 341 340 355 351 347 342 336 334 331 344 351 350 349 349 349 351 349 349 353 4 14 9 355 347 349 342 333 327
120 127 113 99 100 95 82 68 46 46 69 59 44 28 33 29 5 17 47 28 34 14 355 71 111 133 133 100 102 91 99 75 51 47 41 31 18 14 22 21 4 350 343 344 350 16 15 15 35 18 6 353 345 344 340 343 345 325 333 351 347 338 331 326 314 314 340 344 342 349 349 351 351 352 353 354 357 3 359 349 342 337 331 321 318
115 108 116 111 91 84 81 71 61 57 47 59 62 64 33 26 8 351 73 90 62 20 350 1 42 44 131 103 102 78 92 100 67 63 60 47 31 22 24 20 3 342 344 344 343 5 10 7 353 356 351 343 337 333 334 332 335 327 337 349 333 307 309 323 308 324 346 351 355 354 352 350 354 354 354 352 350 349 348 344 337 329 323 321 320
130 142 118 101 96 90 87 79 83 74 48 44 48 75 87 59 27 20 347 137 93 136 90 340 49 38 15 78 98 92 78 86 106 67 65 57 39 28 20 13 347 335 349 342 343 4 9 356 340 337 340 333 329 326 325 327 326 314 336 329 323 332 344 334 341 351 355 0 357 354 353 354 355 355 354 352 349 345 340 337 337 340 340 333 326
153 131 111 110 107 107 105 124 141 100 110 116 77 58 14 39 99 63 333 333 92 72 63 39 16 39 15 74 99 117 106 91 84 75 65 63 45 27 9 4 345 354 347 334 353 357 354 339 328 330 325 321 317 318 317 321 318 324 328 327 331 347 357 358 348 349 3 1 356 355 354 356 353 352 349 346 342 337 337 341 343 340 333 327 325
133 126 130 135 143 149 151 150 146 143 136 222 155 106 34 308 93 4 335 13 5 20 56 31 22 37 11 53 51 121 142 122 79 64 50 39 35 21 2 5 9 356 336 335 5 355 333 326 317 314 311 309 308 303 309 309 298 312 318 326 330 11 4 1 359 1 358 354 355 351 351 352 349 345 344 340 336 336 340 340 333 328 327 326 322
136 144 158 146 154 153 158 121 126 126 186 133 34 93 66 32 32 24 21 24 18 12 35 26 22 32 0 34 42 17 45 66 49 38 31 18 14 11 356 4 3 352 347 1 7 338 316 308 307 306 305 302 301 302 296 316 349 355 350 347 351 25 1 354 357 359 1 357 351 342 345 349 346 338 332 330 330 332 337 335 333 329 328 324 323
161 172 159 152 171 162 152 158 145 145 243 178 153 124 120 80 50 33 25 20 13 14 19 37 19 28 353 17 28 7 51 60 38 22 15 0 357 355 350 353 1 349 340 13 350 326 318 315 307 302 303 301 303 333 6 324 1 358 14 8 357 18 1 355 6 5 1 352 347 346 345 342 341 339 332 333 339 341 342 339 336 337 338 339 335
171 175 149 158 184 188 174 183 169 166 213 201 147 105 84 86 71 52 36 19 14 9 24 31 23 13 352 10 15 9 42 60 35 17 7 356 347 344 343 349 355 354 0 356 343 335 319 313 306 293 277 293 299 275 303 344 8 355 25 2 4 26 1 1 9 2 355 346 342 345 341 338 331 333 339 341 341 341 340 334 336 334 336 337 333
172 171 168 176 170 186 174 50 332 174 139 45 69 76 61 80 78 64 44 34 12 17 15 43 24 9 343 15 11 10 0 47 32 10 353 351 339 331 335 342 353 351 350 350 332 318 309 302 293 17 17 13 21 27 16 13 11 0 16 9 360 23 357 7 13 358 352 343 339 339 334 337 340 339 338 339 337 339 340 340 340 336 337 335 336
178 172 176 187 180 174 156 171 212 189 129 94 74 49 30 76 106 92 63 59 65 27 18 54 26 1 354 29 19 2 356 20 21 5 333 327 322 321 327 337 338 332 328 332 324 313 303 292 7 22 14 18 19 17 6 9 15 4 12 10 8 14 357 11 6 357 351 348 350 342 341 344 342 343 340 336 337 336 334 332 338 337 333 336 337
191 175 178 190 186 177 174 178 211 179 150 132 117 78 41 41 45 133 121 79 77 78 48 98 85 8 25 58 60 15 339 10 5 328 316 310 303 301 299 300 305 302 311 313 310 295 303 338 15 20 8 19 15 16 360 4 10 6 8 9 9 11 357 10 4 353 351 352 345 340 347 348 343 344 341 337 336 335 332 338 336 336 334 339 337
187 187 183 191 187 173 192 186 187 193 184 141 147 141 135 58 39 78 118 125 121 118 117 124 99 69 54 78 91 91 106 152 282 305 307 301 304 304 308 310 312 313 324 340 335 323 304 5 8 18 9 10 17 14 360 2 10 4 3 8 4 4 357 8 1 356 353 347 343 345 353 348 343 341 339 339 337 333 337 340 334 332 335 337 338
184 190 185 192 170 172 193 193 181 200 189 173 158 160 154 144 107 46 84 122 137 173 172 145 132 117 95 56 20 156 170 151 302 298 295 299 300 303 303 315 311 310 316 314 279 289 348 11 6 18 8 5 10 15 6 6 1 2 359 9 1 1 358 11 8 358 348 343 343 352 353 347 341 340 337 337 334 336 339 337 336 335 335 341 341
186 189 184 186 172 180 199 197 182 194 208 191 193 180 164 161 155 159 129 125 169 219 224 204 171 148 158 169 260 301 269 271 280 282 291 298 301 298 299 292 285 287 323 327 298 334 16 358 14 7 8 8 6 9 8 9 360 359 1 9 354 357 0 15 9 351 344 342 347 352 350 344 339 339 338 337 340 337 337 335 334 335 337 338 335
188 193 188 180 173 177 196 208 197 191 205 210 200 194 207 168 161 157 157 171 196 235 236 233 215 184 194 214 223 230 236 244 257 273 284 298 300 309 317 302 288 263 198 245 301 344 7 353 10 12 8 11 7 3 8 8 3 358 3 6 354 352 2 15 1 350 343 349 353 352 348 344 341 343 340 339 338 335 333 334 336 338 340 339 333
190 183 170 184 171 177 184 206 206 194 203 200 196 204 195 186 140 161 169 174 187 193 191 200 212 208 204 210 229 237 240 240 253 273 287 291 310 335 330 323 349 84 153 213 248 12 348 357 10 20 17 11 6 3 10 1 7 356 4 357 355 350 8 8 354 345 351 352 355 351 348 341 343 340 339 338 337 334 333 333 337 341 338 335 334
193 186 171 173 181 175 182 196 203 201 197 196 196 182 200 193 178 197 213 194 195 188 162 171 176 200 211 233 234 224 232 238 243 254 272 292 312 358 347 324 348 0 19 21 33 8 338 8 9 21 15 11 7 12 11 358 2 356 2 356 353 355 14 357 351 350 358 354 353 347 344 342 340 341 338 335 334 330 328 334 335 338 335 334 331
194 193 189 187 193 191 187 188 199 195 189 194 177 196 197 179 181 207 206 210 188 209 138 146 142 136 181 230 237 233 235 242 241 248 270 287 307 318 284 283 338 347 26 13 29 357 353 9 12 15 11 8 13 15 9 358 2 353 5 355 353 1 10 353 352 351 360 356 352 344 343 340 340 341 340 333 330 328 332 335 333 330 331 327 324
195 194 190 187 187 195 198 203 189 174 173 172 191 192 187 192 205 208 215 225 208 144 155 151 169 162 177 196 205 206 228 231 239 276 273 281 290 263 251 292 352 6 22 2 27 354 3 359 20 16 5 10 19 14 6 359 356 357 354 351 355 358 3 360 354 2 6 358 346 341 340 340 339 337 336 332 328 330 333 334 332 331 329 329 329
196 200 191 168 178 188 199 204 185 162 179 183 192 187 203 204 191 194 206 226 210 183 222 186 190 170 162 165 163 201 247 248 200 217 217 197 202 351 13 353 359 26 18 360 4 8 8 6 19 16 2 11 28 15 11 359 355 352 348 353 357 356 5 2 2 1 359 351 342 338 338 337 335 333 330 324 326 331 331 329 330 330 330 329 327
192 190 182 172 173 181 187 198 189 172 184 183 193 202 206 211 203 203 210 224 212 196 196 184 198 113 121 123 120 120 84 318 320 3 34 35 22 16 356 6 19 30 17 358 5 12 11 12 15 5 360 22 25 13 5 3 359 352 349 356 357 3 4 1 358 359 353 346 339 338 337 334 331 329 325 327 328 329 329 327 328 326 327 321 320
191 188 170 176 176 174 187 193 197 183 187 187 198 197 207 193 202 210 222 211 205 205 180 179 100 97 109 111 116 116 113 279 304 333 43 63 3 285 39 29 12 19 36 14 11 360 16 20 10 359 3 35 19 7 8 352 358 354 356 354 359 7 2 352 4 360 352 343 339 336 332 329 326 328 326 327 327 324 324 323 322 323 320 317 323
189 183 170 178 177 179 188 193 196 180 179 186 191 200 196 191 188 196 200 207 210 212 181 175 108 113 130 138 136 142 129 212 252 246 347 115 358 55 74 262 262 83 61 25 11 344 24 24 14 343 39 35 14 12 9 344 357 1 356 357 356 6 352 359 6 359 351 341 335 330 328 323 322 322 323 324 324 325 322 322 322 320 321 323 322
187 180 173 175 180 184 187 190 192 189 189 184 188 190 193 183 179 180 182 207 217 192 197 155 112 128 137 158 148 158 172 193 225 202 211 205 145 60 236 231 91 82 64 47 324 36 52 26 2 12 51 5 26 44 345 340 11 358 349 356 353 351 357 17 9 358 348 337 329 324 322 323 324 325 324 323 322 320 321 322 322 323 323 322 324
184 173 170 178 183 182 188 185 197 195 192 180 171 173 180 181 172 173 183 186 194 208 198 176 134 145 145 164 162 187 187 188 206 208 180 138 167 172 348 283 84 70 47 346 5 78 53 26 19 24 45 337 60 42 325 344 34 330 351 4 333 359 32 28 14 356 343 330 325 323 322 322 323 322 321 321 320 319 316 316 317 318 321 321 325
181 179 166 177 181 187 185 189 188 192 175 163 174 165 171 179 191 194 193 198 176 184 189 203 163 146 156 163 178 185 182 200 203 191 158 183 187 192 205 155 120 124 97 292 134 93 79 68 45 5 11 15 40 13 344 1 285 3 33 324 22 42 44 29 11 350 332 324 321 321 321 321 321 320 318 316 314 310 307 309 310 319 322 325 329
184 179 167 175 177 182 182 185 184 182 177 173 174 174 173 177 192 197 198 199 196 181 188 193 200 161 163 172 177 179 186 199 190 181 175 177 200 198 155 126 97 94 159 275 91 118 127 90 340 247 343 28 359 345 317 293 328 55 46 64 69 64 50 26 360 342 328 324 321 319 316 314 313 313 311 309 304 304 299 304 315 320 321 326 330
185 180 169 174 178 181 183 181 177 180 176 177 175 179 181 186 190 194 197 194 194 190 183 188 191 195 188 186 185 180 181 175 183 182 183 181 182 144 141 147 132 115 182 225 189 168 156 173 183 158 154 198 305 263 277 330 6 20 77 84 73 62 51 17 357 335 326 324 319 313 312 310 311 307 306 302 299 295 296 314 324 324 328 331 328
185 184 175 175 177 179 180 180 177 175 178 178 180 182 189 182 181 189 199 189 179 182 185 193 197 202 192 185 177 179 174 172 173 182 175 168 171 168 168 151 146 181 173 216 239 210 166 147 143 144 184 197 221 241 264 283 342 45 89 89 70 63 46 29 356 337 332 323 315 310 308 307 303 298 294 298 293 296 315 322 320 325 331 327 320
185 187 177 176 180 181 180 180 177 176 180 179 180 184 189 186 185 187 192 180 174 185 189 196 203 206 201 185 169 170 166 163 181 180 173 176 181 165 149 151 143 132 154 238 231 224 163 186 166 175 177 192 212 202 241 222 233 73 74 72 65 65 44 19 355 338 328 322 315 313 306 300 295 292 291 286 290 308 312 313 324 329 326 319 317
188 187 179 177 177 181 179 177 178 177 167 183 184 185 183 193 192 186 184 181 172 177 185 192 202 202 194 184 172 172 173 174 178 185 182 182 175 157 146 135 142 166 189 207 223 142 276 194 177 187 176 174 163 187 246 60 73 81 74 75 70 51 35 8 348 341 337 325 321 309 302 293 289 287 285 295 311 316 318 325 330 328 321 320 320
184 180 180 179 178 174 173 175 177 179 174 193 180 177 183 194 197 187 180 182 180 178 181 187 191 194 189 181 169 171 171 177 174 176 180 166 157 148 140 138 144 155 183 177 165 227 225 213 215 209 146 153 157 180 90 92 85 87 106 91 66 44 24 2 347 336 333 329 316 307 295 292 296 302 308 312 313 316 324 330 329 324 319 316 319